Virgil East

*Note: All times are displayed in the local standard time of the station location.
**Rain - Equipment is designed to accurately record liquid precipitation; under conditions when precipitation is not in liquid form, the data displayed may not properly reflect rainfall values.

Date Max Temp
(°C)
Min Temp
(°C)
Avg Temp
(°C)
Rain (mm) Avg RH (%)
Sat, Feb 17, 2018 -0.7 -6.5 -2.8 0.0 87.2
Fri, Feb 16, 2018 4.4 -5.5 0.3 0.2 91.5
Thu, Feb 15, 2018 10.0 3.0 6.6 0.2 100.0
Wed, Feb 14, 2018 4.9 -5.8 2.7 4.6 92.1
Tue, Feb 13, 2018 -0.1 -16.9 -7.5 0.0 89.2
Mon, Feb 12, 2018 -1.8 -9.1 -4.0 0.2 88.4
Sun, Feb 11, 2018 0.8 -3.8 -1.6 6.2 99.9
DateTime Avg Temp (°C) Rain (mm) RH (%)
Sun, Feb 18, 2018 04:00 -2.1 0.0 100.0
Sun, Feb 18, 2018 03:00 -1.5 0.0 100.0
Sun, Feb 18, 2018 02:00 -1.5 0.0 100.0
Sun, Feb 18, 2018 01:00 -1.7 0.0 100.0
Sun, Feb 18, 2018 00:00 -1.4 0.0 100.0
Sat, Feb 17, 2018 23:00 -1.3 0.0 94.3
Sat, Feb 17, 2018 22:00 -1.3 0.0 87.5
Sat, Feb 17, 2018 21:00 -1.7 0.0 85.8
Sat, Feb 17, 2018 20:00 -1.6 0.0 85.0
Sat, Feb 17, 2018 19:00 -1.4 0.0 80.0
Sat, Feb 17, 2018 18:00 -1.2 0.0 74.8
Sat, Feb 17, 2018 17:00 -1.1 0.0 74.5
Sat, Feb 17, 2018 16:00 -1.0 0.0 73.8
Sat, Feb 17, 2018 15:00 -0.8 0.0 75.0
Sat, Feb 17, 2018 14:00 -0.9 0.0 75.0
Sat, Feb 17, 2018 13:00 -0.9 0.0 77.0
Sat, Feb 17, 2018 12:00 -1.1 0.0 79.0
Sat, Feb 17, 2018 11:00 -1.6 0.0 81.0
Sat, Feb 17, 2018 10:00 -2.4 0.0 84.0
Sat, Feb 17, 2018 09:00 -3.8 0.0 89.8
Sat, Feb 17, 2018 08:00 -5.0 0.0 94.0
Sat, Feb 17, 2018 07:00 -5.3 0.0 94.5
Sat, Feb 17, 2018 06:00 -5.2 0.0 95.0
Sat, Feb 17, 2018 05:00 -5.3 0.0 97.5
Sat, Feb 17, 2018 04:00 -5.4 0.0 98.8
Sat, Feb 17, 2018 03:00 -6.1 0.0 99.5
Sat, Feb 17, 2018 02:00 -6.3 0.0 100.0
Sat, Feb 17, 2018 01:00 -5.7 0.0 97.0
Sat, Feb 17, 2018 00:00 -5.4 0.0 94.8
Fri, Feb 16, 2018 23:00 -4.8 0.0 92.8
Fri, Feb 16, 2018 22:00 -3.6 0.0 84.3
Fri, Feb 16, 2018 21:00 -3.4 0.0 81.5
Fri, Feb 16, 2018 20:00 -3.0 0.0 77.8
Fri, Feb 16, 2018 19:00 -2.7 0.0 78.3
Fri, Feb 16, 2018 18:00 -2.0 0.0 78.0
Fri, Feb 16, 2018 17:00 -0.4 0.0 79.5
Fri, Feb 16, 2018 16:00 0.7 0.0 80.5
Fri, Feb 16, 2018 15:00 1.8 0.0 78.3
Fri, Feb 16, 2018 14:00 1.8 0.0 84.3
Fri, Feb 16, 2018 13:00 1.9 0.0 89.0
Fri, Feb 16, 2018 12:00 1.7 0.0 96.8
Fri, Feb 16, 2018 11:00 1.0 0.2 100.0
Fri, Feb 16, 2018 10:00 1.6 0.0 100.0
Fri, Feb 16, 2018 09:00 1.3 0.0 100.0
Fri, Feb 16, 2018 08:00 1.7 0.0 100.0
Fri, Feb 16, 2018 07:00 2.2 0.0 100.0
Fri, Feb 16, 2018 06:00 2.1 0.0 100.0
Fri, Feb 16, 2018 05:00 2.2 0.0 100.0


asterix Register now to access more data! asterix